Welcome to the New NWS' Forecast!
Most changes are behind the scenes, but click here for differences you might notice.

Regional Weather Roundup (RWR)

Issued by Gray - Portland, ME (GYX)

                            
625 
ASUS41 KGYX 220010
RWRGYX
WEATHER ROUNDUP FOR MAINE AND NEW HAMPSHIRE
NATIONAL WEATHER SERVICE GRAY ME
700 PM EST SUN JAN 21 2018

MEZ002-005-006-010-012-015-018-020-021-024-026-027-029-220100-
MAINE
  
CITY           SKY/WX    TMP DP  RH WIND       PRES   REMARKS
PORTLAND       CLOUDY    35  30  82 SE3       30.18R                  
6HR MIN TEMP:  35; 6HR MAX TEMP:  43;                                

SANFORD        CLOUDY    30  26  85 W3        30.17R                  
BAR HARBOR     FAIR      32  21  64 CALM      30.17R                  
WISCASSET      CLOUDY    32  28  85 CALM      30.19R                  
6HR MIN TEMP:  32; 6HR MAX TEMP:  43;                                

ROCKLAND       CLOUDY    37  26  64 CALM      30.18R                  
FRYEBURG       CLOUDY    35  27  72 E3        30.15R                  
6HR MIN TEMP:  35; 6HR MAX TEMP:  43;                                

LEWISTONAUBURN CLOUDY    35  26  69 SE7       30.17R                  
AUGUSTA        CLOUDY    37  25  61 NW7       30.17R                  
6HR MIN TEMP:  37; 6HR MAX TEMP:  41;                                

WATERVILLE     MOCLDY    34  24  67 CALM      30.12R                  
BANGOR         MOCLDY    26  18  71 CALM      30.17R                  
6HR MIN TEMP:  26; 6HR MAX TEMP:  38;                                

GREENVILLE       N/A     24  12  60 NW12      30.09R WCI  13          
6HR MIN TEMP:  24; 6HR MAX TEMP:  27;                                

MILLINOCKET    CLOUDY    25  10  53 W9G17     30.18R                  
6HR MIN TEMP:  25; 6HR MAX TEMP:  31;                                

HOULTON        FAIR      22   4  46 NW8G16    30.12R                  
6HR MIN TEMP:  22; 6HR MAX TEMP:  27;                                

PRESQUE ISLE   FAIR      18   5  57 NW9       30.15R                  
6HR MIN TEMP:  16; 6HR MAX TEMP:  24;                                

FRENCHVILLE    FAIR      10  -2  58 W15       30.10R WCI  -7          
6HR MIN TEMP:  10; 6HR MAX TEMP:  17;                                

CARIBOU        FAIR      14   3  61 NW16      30.13R WCI  -2          
6HR MIN TEMP:  14; 6HR MAX TEMP:  24;                                

$$

NHZ002-005-008-009-011-012-014-220100-
NEW HAMPSHIRE
  
CITY           SKY/WX    TMP DP  RH WIND       PRES   REMARKS
PORTSMOUTH     MOCLDY    35  27  71 CALM      30.16R                  
ROCHESTER      FAIR      40  28  62 NW3       30.16R                  
6HR MIN TEMP:  35; 6HR MAX TEMP:  44;                                

NASHUA         FAIR      31  28  89 CALM      30.17R                  
MANCHESTER     MOCLDY    34  28  79 CALM      30.15R                  
6HR MIN TEMP:  34; 6HR MAX TEMP:  48;                                

CONCORD        MOCLDY    29  26  89 SE3       30.16R                  
6HR MIN TEMP:  29; 6HR MAX TEMP:  47;                                

LACONIA        CLOUDY    31  28  89 CALM        N/A                   
PLYMOUTH       CLOUDY    33  30  90 CALM      30.16R                  
BERLIN         CLOUDY    32  26  78 CALM      30.12S                  
6HR MIN TEMP:  32; 6HR MAX TEMP:  37;                                

WHITEFIELD     CLOUDY    32  27  81 CALM      30.13R                  
6HR MIN TEMP:  31; 6HR MAX TEMP:  38;                                

JAFFREY        FAIR      29  28  96 CALM      30.14R                  
6HR MIN TEMP:  29; 6HR MAX TEMP:  45;                                

KEENE          FAIR      27  23  85 CALM      30.16R                  
LEBANON        MOCLDY    34  29  82 NE6       30.14R                  
6HR MIN TEMP:  32; 6HR MAX TEMP:  44;                                

MT WASHINGTON  FOG       14  14 100 NW36        N/A  VSB 0   WCI  -8  
6HR MIN TEMP:  13; 6HR MAX TEMP:  15;                                

$$

VTZ005-007-008-220100-
VERMONT
  
CITY           SKY/WX    TMP DP  RH WIND       PRES   REMARKS
ST JOHNSBURY     N/A     34  29  82 MISG      30.12S                  
MONTPELIER     CLOUDY    34  30  85 S3        30.15S                  
BURLINGTON     CLOUDY    34  25  69 NW5       30.15S                  
$$

MAZ007-012-024-CTZ003-RIZ002-NYZ038-NYZ072-220100-
SOUTHERN NEW ENGLAND AND NY
  
CITY           SKY/WX    TMP DP  RH WIND       PRES   REMARKS
BOSTON         MOCLDY    39  29  67 E3        30.18R                  
WORCESTER      FAIR      34  26  72 W3        30.14R                  
NANTUCKET      FAIR      32  31  96 CALM      30.19R                  
PROVIDENCE     FAIR      38  30  73 S6        30.18R                  
HARTFORD       FAIR      39  29  67 N5        30.17R                  
ALBANY         MOCLDY    31  26  82 CALM      30.18R                  
NEW YORK CITY  MOCLDY    49  31  49 E7        30.15F                  
$$

ANZ081-ANZ082-ANZ150-NHZ014-MEZ023>029-220100-
COASTAL MARINE OBSERVATIONS
  
STATION/POSITION TIME  TEMP    WIND        PRES    WAVE
                       AIR SEA DIR/SP/G            HT/PER
                 (UTC) (F)     (DEG/KT/KT) (MB)    (FT/S)
MOUNT DESERT ROC 0000   39     310/ 20/ 21 1021.4R
MATINICUS ROCK   2300   39     290/  7/  9 1021.0R
ISLE OF SHOALS   2300   45     350/  5/  5 1021.2R
JEFFREYS LEDGE   2336      43                N/A     2/ 8
GEORGES BANK BUO 2250   50 59              1018.3    9/10
$$

.............KEY..............
   WCI - WIND CHILL
   TC  - TEMPERATURE IN CELSIUS
   VSB - VISIBILITY IN MILES
   HX  - HEAT INDEX
   FAIR- INDICATES FEW OR NO CLOUDS BELOW 12,000 FT, WITH NO 
         SIGNIFICANT WEATHER AND/OR OBSTRUCTIONS TO VISIBILITY.